Weather in Komarovo

Russia / Tyumen Oblast     57°06′33″N   65°30′48″E
temp.,
°C
wind,
m/s
gust,
m/s
humid.,
%
clouds,
%
prec.,
mm/h
press.,
hPa
HPBL,
m
25 february, thu
thu2523:00−23nne61293100 0.8 1017776
02:00−24n61193100 0.1 1018606
05:00−26n51191100 0.1 1020484
08:00−28nnw4119494 0.0 1021325
11:00−26nnw479391 0.0 1024323
14:00−22nw479291 0.0 1024464
17:00−21nw379395 0.1 1025485
20:00−25wnw2398100 0.0 102666
26 february, fri
fri2623:00−26wnw2299100 0.1 102819
02:00−27w229979 0.0 102819
05:00−28w129961 0.0 102919
08:00−28sw11984 0.0 102919
11:00−21ssw129012 0.0 1029277
14:00−17ssw1283100 0.0 1029574
17:00−18s2493100 0.1 1029316
20:00−23s239834 0.0 102828
27 february, sat
sat2723:00−25s239935 0.0 102930
02:00−27s23954 0.0 102853
05:00−29sse259734 0.0 1027105
08:00−30sse379727 0.0 1027182
11:00−25sse379213 0.0 1026295
14:00−21se479015 0.0 1024368
17:00−20ese410908 0.0 1022427
20:00−22se5119397 0.0 1021406
28 february, sun
sun2823:00−20ese499798 0.3 1018393
02:00−20ese5997100 0.4 1016376
05:00−19e41096100 0.9 1014368
08:00−18e41095100 0.4 1012375
11:00−15e4893100 0.6 1012402
14:00−11e4892100 0.3 1011505
17:00−11ene4893100 0.7 1010489
20:00−13ne4895100 0.4 1011340
1 march, mon
mon123:00−15ne3696100 0.7 1011249
02:00−16nne369698 0.2 1012206
05:00−17n359698 0.3 1013219
08:00−20n259993 0.1 1014113
11:00−17nnw249496 0.1 1014243
14:00−13nnw238798 0.0 1014390
17:00−13nw139299 0.1 1014363
20:00−18w119789 0.0 101320